Regional Weather Roundup
Issued by NWS

Home | Current Version | Previous Version | Text Only | Print | Product List | Glossary Off
Versions: 1 2 3 4 5 6 7 8 9 10 11 12 13 14 15 16 17 18 19 20 21 22 23 24 25 26 27 28 29 30 31 32 33 34 35 36 37 38 39 40 41 42 43 44 45 46 47 48 49 50

000
ASUS43 KLOT 161000
RWRIL

ILLINOIS REGIONAL WEATHER ROUNDUP
NATIONAL WEATHER SERVICE CHICAGO/ROMEOVILLE IL
500 AM CDT TUE SEP 16 2014

NOTE: "FAIR" INDICATES FEW OR NO CLOUDS BELOW 12,000 FEET WITH NO
SIGNIFICANT WEATHER AND/OR OBSTRUCTIONS TO VISIBILITY.

* THESE STATIONS ARE NOT UNDER NWS QUALITY CONTROL. THEY ALSO MAY NOT
  REPORT WEATHER SUCH AS PRECIPITATION OR FOG.

ILZ001-002-007-009-015-016-024-161100-
NORTHWEST ILLINOIS

CITY           SKY/WX    TMP DP  RH WIND       PRES   REMARKS
MOLINE         CLEAR     43  41  93 CALM      30.23S
STERLING*      CLEAR     41  37  87 CALM      30.22S
$$

ILZ003-004-008-010-011-017-018-161100-
NORTH CENTRAL ILLINOIS

CITY           SKY/WX    TMP DP  RH WIND       PRES   REMARKS
ROCKFORD       CLEAR     42  40  92 N5        30.23S
FREEPORT*      CLEAR     40  39  96 CALM      30.24R
$$

ILZ005-006-012>014-019>023-161100-
NORTHEAST ILLINOIS

CITY           SKY/WX    TMP DP  RH WIND       PRES   REMARKS
CHICAGO-OHARE  CLEAR     47  44  90 W3        30.19S
CHICAGO-MIDWAY CLEAR     49  46  90 NW5       30.19S
AURORA         CLEAR     40  38  93 CALM      30.20F FOG
WAUKEGAN       CLEAR     45  42  89 NW6       30.18R
DUPAGE AIRPORT CLEAR     43  40  89 CALM      30.19S
WHEELING       CLEAR     46  43  89 CALM      30.20S
NORTHERLY ISL    N/A     52  45  77 NW5         N/A
$$

LMZ740>746-161100-
SOUTHERN LAKE MICHIGAN

STATION/POSITION SKY/WX   TEMP    WIND        PRES    VSBY  WAVE
                          AIR SEA DIR/SP/G                  HT/PER
                          (F)     (DEG/KT/KT) (MB)    (MI)  (FT/S)
SOUTHERN BUOY              58 64  310/ 10/ 12 1021.6F         1/ 3
WAUKEGAN HARBOR            48     320/  7/ 11   N/A
HARRISON CRIB              52     290/ 10/ 12   N/A
BURNHAM HARBOR             52     300/  3/  7   N/A
CALUMET HARBOR             51     290/  3/  6 1020.7S
MICHIGAN CITY              57      30/ 12/ 17   N/A
MICHIGAN CITY 6N           57 64   80/  6/ 10   N/A           3/ 5
ST. JOSEPH                 56 67   60/ 10/ 12   N/A           2/ 4
$$

ILZ025>027-034>036-040-047-049-050-058-095>099-161100-
WEST-CENTRAL ILLINOIS

CITY           SKY/WX    TMP DP  RH WIND       PRES   REMARKS
QUINCY         CLEAR     48  46  93 N3        30.23S
GALESBURG*     FOG       39  39  99 CALM      30.23S VSB 1/4
$$

ILZ028>032-037-038-041>044-048-051>054-059>061-161100-
CENTRAL ILLINOIS

CITY           SKY/WX    TMP DP  RH WIND       PRES   REMARKS
DECATUR        CLOUDY    54  52  93 N7        30.21R
PEORIA         CLEAR     49  46  90 N6        30.22S
SPRINGFIELD    PTCLDY    53  51  93 N7        30.22S
TAYLORVILLE    NOT AVBL
$$

ILZ033-039-045-046-055>057-062-063-161100-
EAST-CENTRAL ILLINOIS

CITY           SKY/WX    TMP DP  RH WIND       PRES   REMARKS
CHAMPAIGN      CLOUDY    55  53  93 N6        30.19S
MATTOON        CLOUDY    54  52  93 N6        30.19R
$$

ILZ079-100>102-161100-
SOUTHWEST ILLINOIS

CITY           SKY/WX    TMP DP  RH WIND       PRES   REMARKS
ALTON          CLOUDY    56  53  91 NE3       30.21S
BELLEVILLE     CLOUDY    57  55  94 NW7       30.20R
CAHOKIA*       CLOUDY    58  55  90 NE6       30.21R
$$

ILZ064>066-069>071-074>076-080>082-084>086-088>090-092>094-161100-
SOUTH-CENTRAL ILLINOIS

CITY           SKY/WX    TMP DP  RH WIND       PRES   REMARKS
CARBONDALE     CLOUDY    60  54  80 VRB5      30.18R
MT. VERNON     CLOUDY    57  52  82 N3        30.19R
$$

ILZ067-068-072-073-078-083-087-091-161100-
SOUTHEAST ILLINOIS

CITY           SKY/WX    TMP DP  RH WIND       PRES   REMARKS
LAWRENCEVILLE  CLOUDY    58  56  93 N8        30.17R
HARRISBURG*    CLOUDY    60  56  89 N5        30.18R
$$

ABBREVIATIONS USED IN REMARKS
   TC - TEMPERATURE IN CELSIUS
  WCI - WIND CHILL INDEX
   HX - HEAT INDEX
  VSB - VISIBILITY
$$



USA.gov is the U.S. government's official web portal to all federal, state and local government web resources and services.